Regional Weather Roundup
Issued by NWS

Current Version | Previous Version | Text Only | Print | Product List | Glossary On
Versions: 1 2 3 4 5 6 7 8 9 10 11 12 13 14 15 16 17 18 19 20 21 22 23 24 25 26 27 28 29 30 31 32 33 34 35 36 37 38 39 40 41 42 43 44 45 46 47 48 49 50
000
ASUS43 KOUN 172300
RWROK

WEATHER ROUNDUP FOR OKLAHOMA
NATIONAL WEATHER SERVICE NORMAN OK
600 PM CDT SUN OCT 17 2021

NOTE: "FAIR" INDICATES FEW OR NO CLOUDS BELOW 12,000 FEET WITH NO
      SIGNIFICANT WEATHER AND/OR OBSTRUCTIONS TO VISIBILITY.

OKZ001>007-009>012-014-015-017-180000-
NORTHWEST OKLAHOMA AND THE PANHANDLE

CITY           SKY/WX    TMP DP  RH WIND       PRES   REMARKS
GAGE           SUNNY     73  29  19 S18G29    30.11F
GUYMON         SUNNY     74  25  16 SW20G29   30.06F
$$

OKZ016-021>023-033>039-044-045-180000-
SOUTHWEST OKLAHOMA

CITY           SKY/WX    TMP DP  RH WIND       PRES   REMARKS
LAWTON/REGL    PTSUNNY   72  36  26 S10       30.17F
LAWTON/FT SILL PTSUNNY   72  38  29 S8        30.16F
FREDERICK      PTSUNNY   72  32  23 S14       30.14F
CLINTON        MOSUNNY   70  31  23 S17       30.17F
HOBART         PTSUNNY   70  38  31 S8        30.17F
ALTUS AFB      PTSUNNY   72  34  25 S14       30.14F
$$

OKZ018>020-024>031-180000-
CENTRAL OKLAHOMA

CITY           SKY/WX    TMP DP  RH WIND       PRES   REMARKS
OKLAHOMA CITY  PTCLDY    71  34  25 S13       30.17F
OKC/WILEY POST CLEAR     73  36  25 SW13      30.16F
OKC/TINKER AFB CLEAR     73  36  26 SW10      30.15S
STILLWATER     CLEAR     76  37  24 SW7       30.14F
GUTHRIE        CLEAR     73  40  30 SW7       30.15F
$$

OKZ008-013-054>072-180000-
NORTHEAST OKLAHOMA

CITY           SKY/WX    TMP DP  RH WIND       PRES   REMARKS
TULSA          PTCLDY    74  40  29 S9        30.14F
TULSA/JONES    CLEAR     74  42  31 S5        30.15F
PONCA CITY     CLEAR     77  35  21 S7        30.13S
BARTLESVILLE   CLEAR     75  41  29 S8        30.15F
$$

OKZ032-040>043-046>053-073>077-180000-
SOUTH CENTRAL/SOUTHEAST OKLAHOMA

CITY           SKY/WX    TMP DP  RH WIND       PRES   REMARKS
MCALESTER      PTCLDY    71  39  31 S6        30.20F
$$




USA.gov is the U.S. government's official web portal to all federal, state and local government web resources and services.